Location: Bremen
(53.0830°N, 8.8000°E)
Time: 19:12:10
(UTC+01:00)

Envisat - Pass Details

Date: 17 November 2025
Orbit: 761 x 762 km, 98.4° (Epoch: 05 December)

Event Time Altitude Azimuth Distance (km) Brightness Sun altitude
Rises 03:46:53 0° 13° (NNE) 3,239 6.6 -36.3°
Reaches altitude 10° 03:49:12 10° 10° (N) 2,308 5.7 -36.0°
Enters shadow 03:49:26 11° 10° (N) 2,216 5.6 -35.9°
